N4RCT Weather Reports


time (UTC)temp
C
wind
direction
speed
KPH
gust
KPH
rain 1hr
cm
rain 24hr
cm
rain mn
cm
humidity
%
barometer
mb
20260504160124 21 174 1.6 1.6 0.00 0.00 0.00 52 1016.7
20260504151051 19 179 0.0 1.6 0.00 0.00 0.00 60 1016.8
20260504150549 20 169 0.0 1.6 0.00 0.00 0.00 57 1016.7
20260504141015 16 99 0.0 0.0 0.00 0.00 0.00 66 1017.3
20260504140511 16 119 0.0 0.0 0.00 0.00 0.00 68 1017.4
20260504130436 13 118 0.0 0.0 0.00 0.00 0.00 74 1017.2
20260504110322 5 109 0.0 0.0 0.00 0.00 0.00 98 1016.9
20260504100235 5 119 0.0 0.0 0.00 0.00 0.00 98 1016.6
20260504081628 5 121 0.0 0.0 0.00 0.00 0.00 97 1016.5
20260504081124 5 119 0.0 0.0 0.00 0.00 0.00 97 1016.5
20260504080621 5 109 0.0 0.0 0.00 0.00 0.00 97 1016.6
20260504080117 5 117 0.0 0.0 0.00 0.00 0.00 97 1016.6
20260504050433 7 109 0.0 0.0 0.00 0.00 0.00 94 1017.2
20260504045931 7 109 0.0 0.0 0.00 0.00 0.00 94 1017.1
20260504045426 7 109 0.0 0.0 0.00 0.00 0.00 94 1017.2
20260504044922 7 109 0.0 0.0 0.00 0.00 0.00 94 1017.0
20260504044420 7 109 0.0 0.0 0.00 0.00 0.00 93 1017.3
20260504043918 7 102 0.0 0.0 0.00 0.00 0.00 93 1017.3
20260504043414 7 119 0.0 0.0 0.00 0.00 0.00 93 1017.1
20260504042912 7 119 0.0 0.0 0.00 0.00 0.00 92 1017.6
20260504042408 7 120 0.0 0.0 0.00 0.00 0.00 92 1017.8
20260504041904 7 120 0.0 0.0 0.00 0.00 0.00 91 1017.4
20260504041401 7 119 0.0 0.0 0.00 0.00 0.00 91 1017.3
20260504040856 7 109 0.0 0.0 0.00 0.00 0.00 90 1017.6
20260504040354 7 109 0.0 0.0 0.00 0.00 0.00 91 1017.5
20260504035850 7 102 0.0 0.0 0.00 0.00 0.00 91 1017.8
20260504035348 8 109 0.0 0.0 0.00 0.00 0.00 91 1017.3
20260504034844 8 109 0.0 0.0 0.00 0.00 0.00 91 1017.5
20260504034342 8 109 0.0 0.0 0.00 0.00 0.00 91 1017.6
20260504033839 8 108 0.0 0.0 0.00 0.00 0.00 91 1017.8
20260504033337 8 119 0.0 0.0 0.00 0.00 0.00 90 1017.5
20260504032833 8 109 0.0 0.0 0.00 0.00 0.00 90 1017.5
20260504032331 8 109 0.0 0.0 0.00 0.00 0.00 90 1017.6
20260504031827 8 119 0.0 0.0 0.00 0.00 0.00 89 1017.8
20260504031325 8 119 0.0 0.0 0.00 0.00 0.00 88 1017.5
20260504030821 8 109 0.0 0.0 0.00 0.00 0.00 88 1017.3
20260504030318 9 120 0.0 0.0 0.00 0.00 0.00 88 1017.2
20260504025814 9 119 0.0 0.0 0.00 0.00 0.00 89 1017.5
20260504025312 9 120 0.0 0.0 0.00 0.00 0.00 88 1017.2
20260504024808 10 121 0.0 0.0 0.00 0.00 0.00 87 1017.1
20260504024304 10 120 0.0 0.0 0.00 0.00 0.00 87 1017.4
20260504023801 10 120 0.0 0.0 0.00 0.00 0.00 87 1017.4
20260504023258 10 119 0.0 0.0 0.00 0.00 0.00 87 1017.3
20260504022754 10 109 0.0 0.0 0.00 0.00 0.00 86 1017.1
20260504022250 10 103 0.0 0.0 0.00 0.00 0.00 86 1017.1
20260504021747 10 90 0.0 0.0 0.00 0.00 0.00 86 1017.0
20260504021245 10 120 0.0 0.0 0.00 0.00 0.00 85 1017.2
20260504020741 10 121 0.0 0.0 0.00 0.00 0.00 85 1017.2
20260504020238 10 119 0.0 0.0 0.00 0.00 0.00 84 1017.2
20260504015734 11 119 0.0 0.0 0.00 0.00 0.00 84 1016.9
20260504015231 11 119 0.0 0.0 0.00 0.00 0.00 84 1016.8
20260504014726 11 122 0.0 0.0 0.00 0.00 0.00 85 1016.9
20260504014223 11 109 0.0 0.0 0.00 0.00 0.00 84 1016.7
20260504013721 11 108 0.0 0.0 0.00 0.00 0.00 83 1016.7
20260504013218 11 110 0.0 0.0 0.00 0.00 0.00 82 1016.8
20260504012715 11 109 0.0 0.0 0.00 0.00 0.00 81 1016.8
20260504012213 11 109 0.0 0.0 0.00 0.00 0.00 82 1016.6
20260504011709 12 109 0.0 0.0 0.00 0.00 0.00 82 1016.6
20260504011206 12 109 0.0 0.0 0.00 0.00 0.00 79 1016.5
20260504010702 12 109 0.0 0.0 0.00 0.00 0.00 77 1016.5
20260504010158 12 119 0.0 0.0 0.00 0.00 0.00 77 1016.4
20260504005655 12 121 0.0 0.0 0.00 0.00 0.00 76 1016.6
20260504005151 13 120 0.0 0.0 0.00 0.00 0.00 76 1016.6
20260504004649 13 121 0.0 0.0 0.00 0.00 0.00 75 1016.3
20260504004146 13 121 0.0 0.0 0.00 0.00 0.00 75 1016.5
20260504003643 13 134 0.0 0.0 0.00 0.00 0.00 73 1016.3
20260504003139 14 135 0.0 0.0 0.00 0.00 0.00 70 1016.4
20260504002636 14 120 0.0 0.0 0.00 0.00 0.00 70 1016.4
20260504002134 15 122 0.0 0.0 0.00 0.00 0.00 69 1016.4
20260504001632 15 109 0.0 0.0 0.00 0.00 0.00 68 1016.3
20260504001127 15 138 0.0 0.0 0.00 0.00 0.00 71 1016.1
20260504000625 15 146 0.0 0.0 0.00 0.00 0.00 70 1016.3
20260504000122 16 130 0.0 0.0 0.00 0.00 0.00 67 1016.3
20260503235620 16 141 0.0 0.0 0.00 0.00 0.00 62 1016.2
20260503235116 16 122 0.0 0.0 0.00 0.00 0.00 61 1016.1
20260503234615 17 133 0.0 0.0 0.00 0.00 0.00 56 1016.1
20260503234112 17 133 0.0 0.0 0.00 0.00 0.00 56 1016.2
20260503233609 17 133 0.0 0.0 0.00 0.00 0.00 56 1016.1
20260503233104 17 119 0.0 0.0 0.00 0.00 0.00 53 1016.0
20260503232602 17 135 0.0 0.0 0.00 0.00 0.00 53 1016.1
20260503232059 18 103 0.0 0.0 0.00 0.00 0.00 50 1016.0
20260503231557 18 116 0.0 0.0 0.00 0.00 0.00 54 1016.3
20260503231053 18 128 0.0 0.0 0.00 0.00 0.00 52 1016.2
20260503230550 18 126 0.0 0.0 0.00 0.00 0.00 50 1016.3
20260503230047 18 115 0.0 0.0 0.00 0.00 0.00 50 1016.3
20260503225544 18 120 0.0 0.0 0.00 0.00 0.00 51 1016.3
20260503225039 18 78 0.0 1.6 0.00 0.00 0.00 52 1016.4
20260503224537 18 80 0.0 1.6 0.00 0.00 0.00 56 1016.2
20260503224035 19 121 0.0 0.0 0.00 0.00 0.00 48 1016.4
20260503223533 19 129 0.0 0.0 0.00 0.00 0.00 46 1016.3
20260503223028 19 81 0.0 0.0 0.00 0.00 0.00 45 1016.3
20260503222526 19 125 0.0 0.0 0.00 0.00 0.00 45 1016.5
20260503222024 19 126 0.0 0.0 0.00 0.00 0.00 45 1016.2
20260503221522 19 182 1.6 1.6 0.00 0.00 0.00 48 1016.4
20260503221019 19 120 0.0 0.0 0.00 0.00 0.00 47 1016.3
20260503220515 19 129 0.0 0.0 0.00 0.00 0.00 48 1016.6
20260503220012 19 177 1.6 1.6 0.00 0.00 0.00 48 1016.4
20260503215509 19 110 0.0 0.0 0.00 0.00 0.00 48 1016.5
20260503215006 20 42 1.6 3.2 0.00 0.00 0.00 46 1016.5
20260503214505 20 153 0.0 0.0 0.00 0.00 0.00 48 1016.5
20260503214001 20 108 0.0 0.0 0.00 0.00 0.00 48 1016.4
20260503213459 20 104 0.0 0.0 0.00 0.00 0.00 48 1016.5
20260503212955 20 189 3.2 3.2 0.00 0.00 0.00 47 1016.6
20260503212453 20 195 0.0 0.0 0.00 0.00 0.00 47 1016.5
20260503211950 20 215 1.6 3.2 0.00 0.00 0.00 47 1016.6
20260503211447 20 155 0.0 1.6 0.00 0.00 0.00 47 1016.7
20260503210943 20 123 0.0 0.0 0.00 0.00 0.00 44 1016.8
20260503210440 20 165 0.0 0.0 0.00 0.00 0.00 44 1016.8
20260503205934 20 195 1.6 1.6 0.00 0.00 0.00 44 1017.0
20260503205432 20 118 0.0 0.0 0.00 0.00 0.00 45 1017.0
20260503204927 20 218 3.2 8.0 0.00 0.00 0.00 44 1017.1
20260503204425 20 208 1.6 1.6 0.00 0.00 0.00 42 1017.2
20260503203922 20 74 0.0 0.0 0.00 0.00 0.00 44 1017.1
20260503203419 20 211 4.8 8.0 0.00 0.00 0.00 41 1017.2
20260503202916 20 181 3.2 4.8 0.00 0.00 0.00 46 1017.3
20260503202415 20 215 1.6 3.2 0.00 0.00 0.00 42 1017.3
20260503201913 20 136 0.0 1.6 0.00 0.00 0.00 42 1017.5
20260503201409 20 93 0.0 0.0 0.00 0.00 0.00 43 1017.6
20260503200907 20 127 0.0 1.6 0.00 0.00 0.00 42 1017.5
20260503200403 20 156 0.0 1.6 0.00 0.00 0.00 40 1017.6
20260503195900 20 157 0.0 1.6 0.00 0.00 0.00 41 1018.0
20260503195356 20 118 3.2 4.8 0.00 0.00 0.00 41 1018.0
20260503194854 20 205 3.2 3.2 0.00 0.00 0.00 40 1018.0
20260503194350 20 76 0.0 0.0 0.00 0.00 0.00 40 1018.0
20260503193846 20 131 0.0 0.0 0.00 0.00 0.00 39 1018.2
20260503193342 20 221 4.8 4.8 0.00 0.00 0.00 40 1018.4
20260503192838 20 229 1.6 4.8 0.00 0.00 0.00 42 1018.5
20260503192333 21 258 1.6 3.2 0.00 0.00 0.00 42 1018.5
20260503191830 21 164 0.0 1.6 0.00 0.00 0.00 44 1018.7
20260503191327 20 162 0.0 0.0 0.00 0.00 0.00 44 1018.5
20260503190824 20 94 0.0 0.0 0.00 0.00 0.00 45 1018.7
20260503190321 20 116 0.0 1.6 0.00 0.00 0.00 45 1018.8
20260503185818 20 64 0.0 0.0 0.00 0.00 0.00 45 1018.9
20260503185313 19 64 4.8 4.8 0.00 0.00 0.00 45 1018.7
20260503184808 19 71 0.0 1.6 0.00 0.00 0.00 47 1018.9
20260503184305 20 70 1.6 3.2 0.00 0.00 0.00 45 1019.2
20260503183800 19 223 3.2 3.2 0.00 0.00 0.00 47 1019.1
20260503183258 20 66 0.0 1.6 0.00 0.00 0.00 45 1019.1
20260503182755 19 210 3.2 3.2 0.00 0.00 0.00 45 1019.1
20260503182254 19 107 0.0 1.6 0.00 0.00 0.00 44 1019.2
20260503181750 19 26 4.8 4.8 0.00 0.00 0.00 46 1019.4
20260503181248 19 128 1.6 1.6 0.00 0.00 0.00 45 1019.5
20260503180744 19 189 3.2 4.8 0.00 0.00 0.00 47 1019.3
20260503180242 18 91 0.0 0.0 0.00 0.00 0.00 47 1019.4
20260503175738 19 125 1.6 1.6 0.00 0.00 0.00 46 1019.5
20260503175237 18 43 0.0 1.6 0.00 0.00 0.00 45 1019.5
20260503174732 18 178 0.0 1.6 0.00 0.00 0.00 44 1019.5
20260503174230 18 163 0.0 1.6 0.00 0.00 0.00 46 1019.4
20260503173725 18 82 0.0 0.0 0.00 0.00 0.00 47 1019.6
20260503173221 18 185 3.2 3.2 0.00 0.00 0.00 53 1019.6
20260503172718 17 200 4.8 4.8 0.00 0.00 0.00 51 1019.8
20260503172215 18 236 3.2 3.2 0.00 0.00 0.00 50 1019.8
20260503171712 18 127 3.2 4.8 0.00 0.00 0.00 49 1019.8
20260503171209 18 167 0.0 0.0 0.00 0.00 0.00 49 1019.8
20260503170706 18 210 4.8 4.8 0.00 0.00 0.00 52 1019.9
20260503170203 18 77 0.0 0.0 0.00 0.00 0.00 49 1020.0